Skip Navigation LinksHome page > Weather > Current weather Skip Navigation Links

Current Weather

Sarh, Chad

For information only: do not use for flight planning or navigation.
Latest weather
Observation time Friday, April 29, 2016 6:00 PM WAT
Local time Friday, April 29, 2016 6:50 PM WAT
Flight conditions Visual Meteorological Conditions
Winds
Wind speed calm
Visibility 6.2 mi.
Sky condition
Ceiling unlimited
Sky clear
Temperature 99°F
Dewpoint 66°F
Altimeter 29.74 in.Hg
Derived measurements
Relative humidity 35%
Heat index 99°F
Density altitude 3358 ft.
Remarks
Ceiling and visibility OK.
METAR FTTA 291700Z 00000KT CAVOK 37/19 Q1007

Settings

Location code

InnerDrive.Weather 4.0.5722.1 Release CLR 4.0.30319.34209
Copyright ©2015 Inner Drive Technology. All rights reserved. Portions Copyright ©1986-2015 David Braverman.

Find weather

Site navigation


Skip Navigation Links

Place info

Page info

PayPal - The safer, easier way to pay online!

Return home.

Copyright ©2016 Inner Drive Technology. Purveyors of fine, hand-crafted computer software. Page printed 2016-04-29T17:50:03 UTC.